| time (UTC) | temp F | wind direction | speed MPH | gust MPH | rain 1hr in | rain 24hr in | rain mn in | humidity % | barometer mb |
| 20260904211543 | 85 | 0 | 0.0 | 0.0 | 0.00 | 0.00 | 0.00 | 62 | 1011.3 |
| 20260904210039 | 85 | 0 | 0.0 | 0.0 | 0.00 | 0.00 | 0.00 | 64 | 1011.0 |
| 20260904204544 | 84 | 0 | 0.0 | 0.0 | 0.00 | 0.00 | 0.00 | 58 | 1011.1 |
| 20260904203044 | 85 | 0 | 0.0 | 0.0 | 0.00 | 0.00 | 0.00 | 58 | 1011.2 |
| 20260904201544 | 84 | 0 | 0.0 | 0.0 | 0.00 | 0.00 | 0.00 | 58 | 1011.5 |
| 20260904200042 | 85 | 0 | 0.0 | 0.0 | 0.00 | 0.00 | 0.00 | 57 | 1011.6 |
| 20260904194605 | 85 | 0 | 0.0 | 0.0 | 0.00 | 0.00 | 0.00 | 62 | 1011.5 |
| 20260904193043 | 86 | 0 | 0.0 | 0.0 | 0.00 | 0.00 | 0.00 | 61 | 1011.8 |
| 20260904191542 | 85 | 0 | 0.0 | 0.0 | 0.00 | 0.00 | 0.00 | 57 | 1012.1 |
| 20260904190043 | 86 | 0 | 0.0 | 0.0 | 0.00 | 0.00 | 0.00 | 64 | 1012.4 |
| 20260904184543 | 84 | 0 | 0.0 | 0.0 | 0.00 | 0.00 | 0.00 | 57 | 1012.4 |
| 20260904183105 | 85 | 0 | 0.0 | 0.0 | 0.00 | 0.00 | 0.00 | 57 | 1012.7 |
| 20260904181558 | 85 | 0 | 0.0 | 0.0 | 0.00 | 0.00 | 0.00 | 66 | 1012.7 |
| 20260904180044 | 84 | 0 | 0.0 | 0.0 | 0.00 | 0.00 | 0.00 | 59 | 1012.8 |
| 20260904174541 | 84 | 0 | 0.0 | 0.0 | 0.00 | 0.00 | 0.00 | 59 | 1012.8 |
| 20260904173039 | 83 | 0 | 0.0 | 0.0 | 0.00 | 0.00 | 0.00 | 58 | 1012.8 |
| 20260904171543 | 83 | 0 | 0.0 | 0.0 | 0.00 | 0.00 | 0.00 | 65 | 1012.9 |
| 20260904170044 | 84 | 0 | 0.0 | 0.0 | 0.00 | 0.00 | 0.00 | 58 | 1012.9 |
| 20260904164546 | 85 | 0 | 0.0 | 0.0 | 0.00 | 0.00 | 0.00 | 56 | 1013.0 |
| 20260904163046 | 84 | 0 | 0.0 | 0.0 | 0.00 | 0.00 | 0.00 | 59 | 1012.8 |
| 20260904161544 | 84 | 0 | 0.0 | 0.0 | 0.00 | 0.00 | 0.00 | 58 | 1013.0 |
| 20260904160045 | 84 | 0 | 0.0 | 0.0 | 0.00 | 0.00 | 0.00 | 58 | 1013.1 |
| 20260904154548 | 84 | 0 | 0.0 | 0.0 | 0.00 | 0.00 | 0.00 | 62 | 1012.9 |
| 20260904153040 | 83 | 0 | 0.0 | 0.0 | 0.00 | 0.00 | 0.00 | 62 | 1013.0 |
| 20260904151544 | 83 | 0 | 0.0 | 0.0 | 0.00 | 0.00 | 0.00 | 68 | 1013.1 |
| 20260904150043 | 83 | 0 | 0.0 | 0.0 | 0.00 | 0.00 | 0.00 | 64 | 1013.0 |
| 20260904144543 | 82 | 0 | 0.0 | 0.0 | 0.00 | 0.00 | 0.00 | 71 | 1012.8 |
| 20260904143041 | 82 | 0 | 0.0 | 0.0 | 0.00 | 0.00 | 0.00 | 73 | 1013.0 |
| 20260904141544 | 81 | 0 | 0.0 | 0.0 | 0.00 | 0.00 | 0.00 | 70 | 1013.0 |
| 20260904140046 | 80 | 0 | 0.0 | 0.0 | 0.00 | 0.00 | 0.00 | 69 | 1013.0 |
| 20260904134546 | 80 | 0 | 0.0 | 0.0 | 0.00 | 0.00 | 0.00 | 72 | 1012.9 |
| 20260904133043 | 79 | 0 | 0.0 | 0.0 | 0.00 | 0.00 | 0.00 | 72 | 1013.0 |
| 20260904131541 | 78 | 0 | 0.0 | 0.0 | 0.00 | 0.00 | 0.00 | 81 | 1012.9 |
| 20260904130042 | 78 | 0 | 0.0 | 0.0 | 0.00 | 0.00 | 0.00 | 74 | 1012.9 |
| 20260904124537 | 77 | 0 | 0.0 | 0.0 | 0.00 | 0.00 | 0.00 | 76 | 1013.0 |
| 20260904123044 | 77 | 0 | 0.0 | 0.0 | 0.00 | 0.00 | 0.00 | 84 | 1012.9 |
| 20260904121541 | 76 | 0 | 0.0 | 0.0 | 0.00 | 0.00 | 0.00 | 85 | 1012.9 |
| 20260904120048 | 75 | 0 | 0.0 | 0.0 | 0.00 | 0.00 | 0.00 | 87 | 1012.8 |
| 20260904114540 | 75 | 0 | 0.0 | 0.0 | 0.00 | 0.00 | 0.00 | 87 | 1012.6 |
| 20260904113043 | 75 | 0 | 0.0 | 0.0 | 0.00 | 0.00 | 0.00 | 87 | 1012.7 |
| 20260904111548 | 74 | 0 | 0.0 | 0.0 | 0.00 | 0.00 | 0.00 | 88 | 1012.3 |
| 20260904110043 | 74 | 0 | 0.0 | 0.0 | 0.00 | 0.00 | 0.00 | 88 | 1012.1 |
| 20260904104550 | 74 | 0 | 0.0 | 0.0 | 0.00 | 0.01 | 0.00 | 88 | 1012.1 |
| 20260904103043 | 74 | 0 | 0.0 | 0.0 | 0.00 | 0.01 | 0.00 | 90 | 1011.8 |
| 20260904101543 | 74 | 0 | 0.0 | 0.0 | 0.00 | 0.01 | 0.00 | 90 | 1011.9 |
| 20260904100043 | 75 | 0 | 0.0 | 0.0 | 0.00 | 0.01 | 0.00 | 89 | 1011.7 |
| 20260904094543 | 75 | 0 | 0.0 | 0.0 | 0.00 | 0.14 | 0.00 | 89 | 1011.9 |
| 20260904093047 | 75 | 0 | 0.0 | 0.0 | 0.00 | 0.14 | 0.00 | 89 | 1011.9 |
| 20260904091541 | 75 | 0 | 0.0 | 0.0 | 0.00 | 0.14 | 0.00 | 90 | 1012.0 |
| 20260904090038 | 75 | 0 | 0.0 | 0.0 | 0.00 | 0.14 | 0.00 | 93 | 1012.1 |
| 20260904084545 | 75 | 0 | 0.0 | 0.0 | 0.00 | 0.55 | 0.00 | 95 | 1012.1 |
| 20260904083042 | 75 | 0 | 0.0 | 0.0 | 0.00 | 0.55 | 0.00 | 95 | 1011.8 |
| 20260904081544 | 75 | 0 | 0.0 | 0.0 | 0.00 | 0.55 | 0.00 | 97 | 1012.0 |
| 20260904080045 | 75 | 0 | 0.0 | 0.0 | 0.00 | 0.55 | 0.00 | 97 | 1012.1 |
| 20260904074546 | 75 | 0 | 0.0 | 0.0 | 0.00 | 0.57 | 0.00 | 96 | 1012.1 |
| 20260904073039 | 75 | 0 | 0.0 | 0.0 | 0.00 | 0.57 | 0.00 | 95 | 1012.1 |
| 20260904071552 | 75 | 0 | 0.0 | 0.0 | 0.00 | 0.57 | 0.00 | 95 | 1011.8 |
| 20260904070039 | 75 | 0 | 0.0 | 0.0 | 0.00 | 0.57 | 0.00 | 94 | 1011.5 |
| 20260904064543 | 75 | 0 | 0.0 | 0.0 | 0.00 | 1.10 | 0.00 | 94 | 1011.6 |
| 20260904063042 | 75 | 0 | 0.0 | 0.0 | 0.00 | 1.10 | 0.00 | 94 | 1011.4 |
| 20260904061541 | 75 | 0 | 0.0 | 0.0 | 0.00 | 1.10 | 0.00 | 92 | 1011.4 |
| 20260904060040 | 75 | 0 | 0.0 | 0.0 | 0.00 | 1.10 | 0.00 | 92 | 1011.7 |
| 20260904054543 | 76 | 0 | 0.0 | 0.0 | 0.00 | 1.11 | 0.00 | 91 | 1011.7 |
| 20260904053044 | 76 | 0 | 0.0 | 0.0 | 0.00 | 1.11 | 0.00 | 90 | 1012.2 |
| 20260904051540 | 76 | 0 | 0.0 | 0.0 | 0.00 | 1.11 | 0.00 | 89 | 1012.3 |
| 20260904050045 | 77 | 0 | 0.0 | 0.0 | 0.00 | 1.11 | 0.00 | 88 | 1012.1 |
| 20260904044539 | 78 | 0 | 0.0 | 0.0 | 0.00 | 1.11 | 0.00 | 89 | 1013.0 |
| 20260904043043 | 77 | 0 | 0.0 | 0.0 | 0.00 | 1.11 | 0.00 | 92 | 1013.1 |
| 20260904041542 | 77 | 0 | 0.0 | 0.0 | 0.00 | 1.11 | 0.00 | 92 | 1012.7 |
| 20260904040046 | 77 | 0 | 0.0 | 0.0 | 0.00 | 1.11 | 0.00 | 91 | 1012.6 |
| 20260904034543 | 77 | 0 | 0.0 | 0.0 | 0.00 | 1.11 | 1.11 | 91 | 1012.8 |
| 20260904033043 | 77 | 0 | 0.0 | 0.0 | 0.00 | 1.11 | 1.11 | 91 | 1013.2 |
| 20260904031539 | 77 | 0 | 0.0 | 0.0 | 0.00 | 1.11 | 1.11 | 91 | 1013.4 |
| 20260904030041 | 78 | 0 | 0.0 | 0.0 | 0.00 | 1.11 | 1.11 | 90 | 1013.3 |
| 20260904024547 | 78 | 0 | 0.0 | 0.0 | 0.00 | 1.11 | 1.11 | 89 | 1013.3 |
| 20260904023044 | 78 | 0 | 0.0 | 0.0 | 0.00 | 1.11 | 1.11 | 88 | 1013.3 |
| 20260904021550 | 78 | 0 | 0.0 | 0.0 | 0.00 | 1.11 | 1.11 | 88 | 1013.5 |
| 20260904020041 | 79 | 0 | 0.0 | 0.0 | 0.00 | 1.11 | 1.11 | 88 | 1013.8 |
| 20260904014543 | 79 | 0 | 0.0 | 0.0 | 0.00 | 1.11 | 1.11 | 87 | 1013.9 |
| 20260904013042 | 79 | 0 | 0.0 | 0.0 | 0.00 | 1.11 | 1.11 | 86 | 1014.1 |
| 20260904011551 | 79 | 0 | 0.0 | 0.0 | 0.00 | 1.11 | 1.11 | 86 | 1013.8 |
| 20260904010039 | 80 | 0 | 0.0 | 0.0 | 0.00 | 1.11 | 1.11 | 86 | 1014.1 |
| 20260904004540 | 80 | 0 | 0.0 | 0.0 | 0.00 | 1.11 | 1.11 | 87 | 1013.9 |
| 20260904003042 | 80 | 0 | 0.0 | 0.0 | 0.00 | 1.11 | 1.11 | 87 | 1013.8 |
| 20260904001542 | 80 | 0 | 0.0 | 0.0 | 0.00 | 1.11 | 1.11 | 86 | 1013.5 |
| 20260904000041 | 81 | 0 | 0.0 | 0.0 | 0.00 | 1.11 | 1.11 | 85 | 1013.6 |
| 20260903234540 | 81 | 0 | 0.0 | 0.0 | 0.00 | 1.11 | 1.11 | 85 | 1013.7 |
| 20260903233040 | 81 | 0 | 0.0 | 0.0 | 0.00 | 1.11 | 1.11 | 84 | 1013.4 |
| 20260903231540 | 82 | 0 | 0.0 | 0.0 | 0.00 | 1.11 | 1.11 | 82 | 1013.4 |
| 20260903230040 | 83 | 0 | 0.0 | 0.0 | 0.00 | 1.11 | 1.11 | 81 | 1013.3 |
| 20260903224542 | 83 | 0 | 0.0 | 0.0 | 0.00 | 1.11 | 1.11 | 80 | 1013.0 |
| 20260903223049 | 84 | 0 | 0.0 | 0.0 | 0.00 | 1.11 | 1.11 | 79 | 1013.2 |
| 20260903221538 | 84 | 0 | 0.0 | 0.0 | 0.00 | 1.11 | 1.11 | 80 | 1012.9 |
| 20260903220058 | 84 | 0 | 0.0 | 0.0 | 0.00 | 1.11 | 1.11 | 78 | 1012.9 |
| 20260903214541 | 84 | 0 | 0.0 | 0.0 | 0.00 | 1.11 | 1.11 | 78 | 1012.7 |
| 20260903213045 | 85 | 0 | 0.0 | 0.0 | 0.00 | 1.11 | 1.11 | 76 | 1012.7 |